Погода в Красном

Россия / Воронежская область     51°10′07″N   41°28′31″E
темп.,
°C
ветер,
м/с
пор.,
м/с
влажн.,
%
обл.,
%
осадки,
мм/ч
давл.,
гПа
погр.,
м
18 мая, ср
ср1800:00+6з37915 0.0 1007122
03:00+4з410940 0.0 1007230
06:00+6з510905 0.0 1008346
09:00+11зсз577349 0.0 1009929
12:00+13сз456574 0.6 10101042
15:00+14з346236 1.9 10101117
18:00+14сз226682 0.6 1010734
21:00+9св11815 0.9 101210
19 мая, чт
чт1900:00+8с22875 0.0 101316
03:00+7с349410 0.0 101472
06:00+8с36905 0.0 1015181
09:00+12с55690 0.0 1016725
12:00+15ссз445550 0.0 10151737
15:00+16ссз454827 0.1 10141865
18:00+13ссз3764100 0.0 1014197
21:00+10сз3673100 0.0 101497
20 мая, пт
пт2000:00+9ссз4981100 0.0 1014238
03:00+6ссз4109224 0.0 1014218
06:00+7ссз49835 0.0 1016297
09:00+11с56545 0.0 10171028
12:00+13ссз574692 0.0 10172262
15:00+12с675589 0.0 10171439
18:00+12ссз475880 0.0 10171653
21:00+8ссв2265100 0.0 101730
21 мая, сб
сб2100:00+8вюв1154100 0.0 101521
03:00+8вюв2354100 0.0 101478
06:00+8в3567100 0.0 1012190
09:00+8в4585100 0.9 1010350
12:00+7вюв4692100 1.0 1009410
15:00+10вюв347471 1.1 1008973
18:00+12вюв236335 0.1 1008644
21:00+7юз22805 0.1 100910
22 мая, вс
вс2200:00+5зсз22905 0.0 100917
03:00+5зсз119067 0.0 100910
06:00+7св118180 0.0 100976
09:00+11в3361100 0.0 1007692
12:00+13в3350100 0.1 10061674
15:00+13всв5555100 0.1 10061243
18:00+12в3561100 0.0 10061112
21:00+8всв3774100 0.0 1006141